Location: Zagreb
(45.8000°N, 16.0000°E)
Time: 14:33:25
(UTC+02:00)

Transit 2A Rocket - Pass Details

Date: 15 August 2022
Orbit: 593 x 907 km, 66.7° (Epoch: 25 September)

Event Time Altitude Azimuth Distance (km) Brightness Sun altitude
Rises 03:56:06 0° 320° (NW) 2,868 8.0 -18.2°
Reaches altitude 10° 03:58:24 10° 312° (NW) 1,984 7.1 -17.9°
Maximum altitude 04:02:32 39° 244° (WSW) 970 5.1 -17.4°
Enters shadow 04:03:52 31° 207° (SSW) 1,134 5.4 -17.3°
Drops below altitude 10° 04:06:55 10° 177° (S) 2,106 - -16.9°
Sets 04:09:25 0° 169° (S) 3,069 - -16.6°
